When you browse on this site, cookies collect data to enhance your experience and personalize the content and advertising you see.
Visit our Privacy Policy to learn more. By continuing to use the site, you agree to this use of cookies and data.
  • In Österreich
  • Länderverzeichnis
  • Für 7 Tage
  • Wassertemperatur
  • Satellitenkarten
  • Wetterkarte
  • News
  • Widgets
  • user-avatar
    Anmelden

    Stündliche Wetter Korçe

    Heute, 19 Januar, Samstag

    Zeit Temperatur Niederschläge Wind Luftdruck Luftfeuchtigkeit
    00:00 +1°C° 0.1 mm 2 m/S 664 mmHg 96%
    01:00 +1°C° 0.1 mm 2 m/S 664 mmHg 96%
    02:00 +1°C° 0.1 mm 2 m/S 664 mmHg 96%
    03:00 +1°C° 0.1 mm 2 m/S 664 mmHg 96%
    04:00 +1°C° 0.1 mm 2 m/S 664 mmHg 96%
    05:00 -1°C° 0 mm 2 m/S 664 mmHg 95%
    06:00 -1°C° 0 mm 2 m/S 664 mmHg 95%
    07:00 -1°C° 0 mm 2 m/S 664 mmHg 94%
    08:00 +1°C° 0.2 mm 2 m/S 664 mmHg 94%
    09:00 +2°C° 0.2 mm 2 m/S 664 mmHg 93%
    10:00 +3°C° 0.2 mm 2 m/S 665 mmHg 92%
    11:00 +3°C° 0.9 mm 2 m/S 665 mmHg 93%
    12:00 +3°C° 0.9 mm 2 m/S 664 mmHg 93%
    13:00 +3°C° 0.9 mm 2 m/S 664 mmHg 93%
    14:00 +3°C° 0.2 mm 2 m/S 664 mmHg 93%
    15:00 +3°C° 0.2 mm 2 m/S 664 mmHg 93%
    16:00 +3°C° 0.2 mm 2 m/S 664 mmHg 93%
    17:00 +2°C° 0 mm 2 m/S 663 mmHg 93%
    18:00 +2°C° 0 mm 2 m/S 663 mmHg 92%
    19:00 +1°C° 0 mm 2 m/S 663 mmHg 92%
    20:00 +1°C° 0.1 mm 2 m/S 663 mmHg 92%
    21:00 +1°C° 0.1 mm 2 m/S 663 mmHg 91%
    22:00 +1°C° 0.1 mm 2 m/S 663 mmHg 91%
    23:00 +1°C° 0.2 mm 2 m/S 663 mmHg 91%

    Morgen, 20 Januar, Sonntag

    Zeit Temperatur Niederschläge Wind Luftdruck Luftfeuchtigkeit
    00:00 +1°C° 0.2 mm 2 m/S 663 mmHg 91%
    01:00 +1°C° 0.2 mm 2 m/S 663 mmHg 91%
    02:00 +1°C° 0.1 mm 2 m/S 663 mmHg 91%
    03:00 +1°C° 0.1 mm 2 m/S 663 mmHg 91%
    04:00 -1°C° 0.1 mm 2 m/S 662 mmHg 91%
    05:00 -1°C° 0 mm 2 m/S 662 mmHg 92%
    06:00 -1°C° 0 mm 2 m/S 662 mmHg 92%
    07:00 -1°C° 0 mm 2 m/S 662 mmHg 92%
    08:00 +1°C° 0 mm 2 m/S 663 mmHg 90%
    09:00 +2°C° 0 mm 2 m/S 663 mmHg 88%
    10:00 +4°C° 0 mm 2 m/S 664 mmHg 87%
    11:00 +4°C° 0 mm 2 m/S 664 mmHg 85%
    12:00 +4°C° 0 mm 2 m/S 663 mmHg 83%
    13:00 +5°C° 0 mm 2 m/S 663 mmHg 82%
    14:00 +5°C° 0.1 mm 1 m/S 663 mmHg 84%
    15:00 +5°C° 0.1 mm 1 m/S 663 mmHg 86%
    16:00 +4°C° 0.1 mm 1 m/S 663 mmHg 87%
    17:00 +4°C° 0 mm 1 m/S 663 mmHg 89%
    18:00 +3°C° 0 mm 1 m/S 663 mmHg 90%
    19:00 +2°C° 0 mm 1 m/S 663 mmHg 91%
    20:00 +1°C° 0 mm 1 m/S 663 mmHg 91%
    21:00 +1°C° 0 mm 1 m/S 663 mmHg 90%
    22:00 +1°C° 0 mm 1 m/S 663 mmHg 90%
    23:00 0°C° 0 mm 1 m/S 663 mmHg 88%

    übermorgen, 21 Januar, Montag

    Zeit Temperatur Niederschläge Wind Luftdruck Luftfeuchtigkeit
    00:00 0°C° 0 mm 1 m/S 663 mmHg 87%
    01:00 0°C° 0 mm 1 m/S 662 mmHg 86%
    02:00 0°C° 0 mm 1 m/S 662 mmHg 84%
    03:00 0°C° 0 mm 1 m/S 662 mmHg 83%
    04:00 0°C° 0 mm 1 m/S 662 mmHg 82%
    05:00 0°C° 0 mm 1 m/S 662 mmHg 81%
    06:00 0°C° 0 mm 1 m/S 662 mmHg 81%
    07:00 0°C° 0 mm 1 m/S 662 mmHg 80%
    08:00 -1°C° 0 mm 2 m/S 663 mmHg 79%
    09:00 +2°C° 0 mm 2 m/S 664 mmHg 78%
    10:00 +4°C° 0 mm 2 m/S 664 mmHg 78%
    11:00 +4°C° 0 mm 2 m/S 664 mmHg 77%
    12:00 +5°C° 0 mm 2 m/S 664 mmHg 76%
    13:00 +5°C° 0 mm 2 m/S 664 mmHg 75%
    14:00 +5°C° 0 mm 2 m/S 664 mmHg 78%
    15:00 +5°C° 0 mm 1 m/S 663 mmHg 81%
    16:00 +5°C° 0 mm 1 m/S 663 mmHg 83%
    17:00 +4°C° 0.1 mm 1 m/S 663 mmHg 85%
    18:00 +2°C° 0.1 mm 2 m/S 663 mmHg 87%
    19:00 +2°C° 0.1 mm 2 m/S 663 mmHg 89%
    20:00 +2°C° 0.3 mm 2 m/S 663 mmHg 89%
    21:00 +2°C° 0.3 mm 2 m/S 663 mmHg 89%
    22:00 +1°C° 0.3 mm 2 m/S 663 mmHg 89%
    23:00 +1°C° 0.1 mm 2 m/S 663 mmHg 88%

    22 Januar, Dienstag

    Zeit Temperatur Niederschläge Wind Luftdruck Luftfeuchtigkeit
    00:00 +1°C° 0.1 mm 2 m/S 663 mmHg 88%
    01:00 -1°C° 0.1 mm 2 m/S 663 mmHg 87%
    02:00 -1°C° 0.1 mm 2 m/S 662 mmHg 87%
    03:00 -1°C° 0.1 mm 2 m/S 662 mmHg 86%
    04:00 -1°C° 0.1 mm 2 m/S 661 mmHg 86%
    05:00 -1°C° 0.1 mm 2 m/S 661 mmHg 87%
    06:00 -1°C° 0.1 mm 2 m/S 661 mmHg 87%
    07:00 -1°C° 0.1 mm 2 m/S 661 mmHg 88%
    08:00 +1°C° 0 mm 2 m/S 661 mmHg 86%
    09:00 +2°C° 0 mm 2 m/S 661 mmHg 85%
    10:00 +3°C° 0 mm 3 m/S 661 mmHg 83%
    11:00 +3°C° 0.4 mm 3 m/S 660 mmHg 84%
    12:00 +3°C° 0.4 mm 2 m/S 660 mmHg 85%
    13:00 +3°C° 0.4 mm 2 m/S 659 mmHg 86%
    14:00 +2°C° 0.8 mm 3 m/S 658 mmHg 88%
    15:00 +2°C° 0.8 mm 3 m/S 658 mmHg 89%
    16:00 +1°C° 0.8 mm 3 m/S 657 mmHg 91%
    17:00 +1°C° 0.8 mm 3 m/S 657 mmHg 91%
    18:00 +1°C° 0.8 mm 3 m/S 656 mmHg 91%
    19:00 +1°C° 0.8 mm 3 m/S 656 mmHg 91%
    20:00 +1°C° 2.4 mm 3 m/S 656 mmHg 92%
    21:00 +1°C° 2.4 mm 3 m/S 655 mmHg 93%
    22:00 +1°C° 2.4 mm 3 m/S 655 mmHg 94%
    23:00 +1°C° 1.3 mm 3 m/S 655 mmHg 96%

    23 Januar, Mittwoch

    Zeit Temperatur Niederschläge Wind Luftdruck Luftfeuchtigkeit
    00:00 +2°C° 1.3 mm 2 m/S 655 mmHg 97%
    01:00 +2°C° 1.3 mm 2 m/S 655 mmHg 99%
    02:00 +2°C° 0.6 mm 2 m/S 654 mmHg 98%
    03:00 +2°C° 0.6 mm 2 m/S 654 mmHg 98%
    04:00 +2°C° 0.6 mm 2 m/S 654 mmHg 97%
    05:00 +1°C° 0.3 mm 2 m/S 654 mmHg 97%
    06:00 +1°C° 0.3 mm 2 m/S 654 mmHg 97%
    07:00 -1°C° 0.3 mm 2 m/S 654 mmHg 97%
    08:00 +1°C° 0.2 mm 2 m/S 654 mmHg 94%
    09:00 0°C° 0.2 mm 3 m/S 654 mmHg 91%
    10:00 +1°C° 0.2 mm 3 m/S 654 mmHg 88%
    11:00 +1°C° 0.1 mm 3 m/S 654 mmHg 86%
    12:00 +1°C° 0.1 mm 3 m/S 654 mmHg 85%
    13:00 +2°C° 0.1 mm 3 m/S 654 mmHg 83%
    14:00 +1°C° 0.1 mm 3 m/S 654 mmHg 84%
    15:00 +1°C° 0.1 mm 3 m/S 653 mmHg 85%
    16:00 0°C° 0.1 mm 3 m/S 653 mmHg 86%
    17:00 0°C° 0 mm 3 m/S 653 mmHg 89%
    18:00 -2°C° 0 mm 4 m/S 653 mmHg 92%
    19:00 -3°C° 0 mm 4 m/S 653 mmHg 94%
    20:00 -3°C° 0.2 mm 4 m/S 653 mmHg 93%
    21:00 -2°C° 0.2 mm 3 m/S 653 mmHg 92%
    22:00 -1°C° 0.2 mm 3 m/S 652 mmHg 91%
    23:00 -1°C° 0.7 mm 3 m/S 652 mmHg 91%

    24 Januar, Donnerstag

    Zeit Temperatur Niederschläge Wind Luftdruck Luftfeuchtigkeit
    00:00 -2°C° 0.7 mm 4 m/S 652 mmHg 92%
    01:00 -2°C° 0.7 mm 4 m/S 651 mmHg 92%
    02:00 -2°C° 0.5 mm 4 m/S 651 mmHg 91%
    03:00 -2°C° 0.5 mm 4 m/S 650 mmHg 90%
    04:00 -1°C° 0.5 mm 3 m/S 650 mmHg 89%
    05:00 -1°C° 0.5 mm 3 m/S 650 mmHg 89%
    06:00 -1°C° 0.5 mm 3 m/S 649 mmHg 89%
    07:00 -1°C° 0.5 mm 3 m/S 649 mmHg 89%
    08:00 -2°C° 0.9 mm 4 m/S 649 mmHg 92%
    09:00 -2°C° 0.9 mm 4 m/S 649 mmHg 94%
    10:00 -1°C° 0.9 mm 4 m/S 650 mmHg 96%
    11:00 -1°C° 0.3 mm 4 m/S 649 mmHg 95%
    12:00 0°C° 0.3 mm 4 m/S 649 mmHg 94%
    13:00 0°C° 0.3 mm 4 m/S 648 mmHg 94%
    14:00 0°C° 1.5 mm 4 m/S 648 mmHg 93%
    15:00 0°C° 1.5 mm 4 m/S 647 mmHg 93%
    16:00 0°C° 1.5 mm 4 m/S 647 mmHg 93%
    17:00 0°C° 4.4 mm 4 m/S 647 mmHg 94%
    18:00 0°C° 4.4 mm 4 m/S 647 mmHg 95%
    19:00 0°C° 4.4 mm 4 m/S 647 mmHg 96%
    20:00 +1°C° 4.8 mm 3 m/S 647 mmHg 97%
    21:00 +2°C° 4.8 mm 2 m/S 647 mmHg 98%
    22:00 +3°C° 4.8 mm 1 m/S 648 mmHg 98%
    23:00 +1°C° 1.5 mm 2 m/S 648 mmHg 98%
    Mehr zeigen